Location: Deuil
(48.9767°N, 2.3272°E)
Time: 23:43:34
(UTC+00:00)

Cosmos 2228 - Pass Details

Date: 05 June 2022
Orbit: 586 x 617 km, 82.5° (Epoch: 03 July)

Event Time Altitude Azimuth Distance (km) Brightness Sun altitude
Rises 23:15:12 0° 8° (N) 2,877 7.9 -18.0°
Drops below altitude 10° 23:20:11 10° 58° (ENE) 1,953 5.9 -18.1°
Maximum altitude 23:20:17 10° 60° (ENE) 1,952 5.9 -18.1°
Enters shadow 23:24:08 - 103° (ESE) 2,508 6.0 -18.2°
